Weather in Nyukhcha

Russia / Republic of Karelia     63°55′23″N   36°15′14″E
temp.,
°C
wind,
m/s
gust,
m/s
humid.,
%
clouds,
%
prec.,
mm/h
press.,
hPa
HPBL,
m
28 february, sun
sun2800:00−8wsw339639 0.0 101240
03:00−9sw339627 0.0 101238
06:00−10sw339550 0.0 101148
09:00−9sw239459 0.0 101160
12:00−4sw259393 0.0 1011191
15:00−3sw369480 0.0 1012263
18:00−2wsw389483 0.0 1012423
21:00−1wsw369592 0.0 1012241
1 march, mon
mon100:00−1sw489590 0.0 1010303
03:00−2wsw6139095 0.0 1009368
06:00+1wsw6139797 0.0 1006635
09:00+1w5149499 0.1 1004667
12:00+1w51499100 0.0 1002583
15:00+1w41099100 0.1 1001379
18:00+1wnw5119199 0.0 999647
21:00+1w41086100 0.1 998557
2 march, tue
tue200:000wnw41096100 0.6 997436
03:00−2w5129699 0.7 996557
06:00−1wnw81694100 1.4 996959
09:00−2nw81592100 2.1 999829
12:00−2nnw7138491 0.1 1003854
15:00−2nw5118476 0.1 1006588
18:00−3nw4128799 0.3 1008961
21:00−6nw4119081 0.3 1009272
3 march, wed
wed300:00−8wnw49920 0.0 1010197
03:00−8wnw48920 0.0 1012165
06:00−9wnw38931 0.0 1012148
09:00−9w47921 0.0 1012171
12:00−5w479384 0.0 1011352
15:00−3wsw379288 0.0 1008376
18:00−4sw499091 0.0 1005265
21:00−3sw4109595 0.3 999373
4 march, thu
thu400:00−1sw61296100 2.9 993658
03:000w41291100 2.9 989583
06:00−3w41185100 0.0 986448
09:00−7w2794100 0.0 987212
12:00−6nnw8139496 0.5 990854
15:00−7nnw9148898 1.6 994866
18:00−9nnw51288100 0.1 997465
21:00−12wnw359576 0.1 99887